Location: Presov
(49.0000°N, 21.2500°E)
Time: 00:19:29
(UTC+02:00)

Transit 2A Rocket - Pass Details

Date: 15 April 2021
Orbit: 594 x 908 km, 66.7° (Epoch: 05 May)

Event Time Altitude Azimuth Distance (km) Brightness Sun altitude
Rises 03:24:46 0° 304° (NW) 2,896 7.9 -20.4°
Enters shadow 03:25:11 - 302° (WNW) 2,775 7.8 -20.4°
Reaches altitude 10° 03:29:06 10° 264° (W) 2,044 - -19.9°
Maximum altitude 03:29:52 10° 254° (WSW) 2,030 - -19.8°
Drops below altitude 10° 03:30:39 10° 244° (WSW) 2,068 - -19.7°
Sets 03:35:13 0° 205° (SSW) 3,064 - -19.2°
